Location: Unspecified
(0.0000°N, 0.0000°E)
Time: 07:57:07
(UTC+00:00)

Envisat - Pass Details

Date: 17 February 2018
Orbit: 764 x 766 km, 98.2° (Epoch: 27 May)

Event Time Altitude Azimuth Distance (km) Brightness Sun altitude
Rises 21:08:44 0° 207° (SSW) 3,228 6.7 -42.6°
Reaches altitude 10° 21:12:53 10° 240° (WSW) 2,298 6.0 -43.5°
Maximum altitude 21:14:22 11° 257° (WSW) 2,211 6.0 -43.9°
Drops below altitude 10° 21:15:51 10° 275° (W) 2,295 6.0 -44.3°
Enters shadow 21:15:52 10° 275° (W) 2,298 6.0 -44.3°
